GW7644 Weather Reports


Display with metric or nautical units.
time (UTC)temp
F
wind
direction
speed
MPH
gust
MPH
rain 1hr
in
rain 24hr
in
rain mn
in
humidity
%
barometer
mb
20260906143958 73 136 1.0 7.0 0.00 0.00 0.00 88 1017.2
20260906143453 74 132 5.0 7.0 0.00 0.00 0.00 87 1017.3
20260906142949 73 141 1.0 6.0 0.00 0.00 0.00 89 1017.2
20260906142449 73 149 3.0 4.0 0.00 0.00 0.00 89 1017.2
20260906141944 73 136 2.0 6.0 0.00 0.00 0.00 90 1017.0
20260906141443 72 125 3.0 8.0 0.00 0.00 0.00 90 1017.2
20260906140938 73 140 4.0 7.0 0.00 0.00 0.00 90 1017.7
20260906140433 73 140 1.0 2.0 0.00 0.00 0.00 90 1017.6
20260906135931 73 126 3.0 6.0 0.00 0.00 0.00 90 1017.7
20260906135430 72 127 1.0 6.0 0.00 0.00 0.00 91 1017.5
20260906134926 72 125 2.0 7.0 0.00 0.00 0.00 90 1017.5
20260906134421 73 86 5.0 9.0 0.00 0.00 0.00 89 1017.5
20260906133915 73 146 1.0 2.0 0.00 0.00 0.00 90 1017.2
20260906133411 73 139 1.0 4.0 0.00 0.00 0.00 90 1017.2
20260906132907 73 123 2.0 7.0 0.00 0.00 0.00 89 1017.3
20260906132402 73 132 2.0 2.0 0.00 0.00 0.00 90 1017.3
20260906131857 73 157 2.0 2.0 0.00 0.00 0.00 89 1017.1
20260906131353 73 128 0.0 2.0 0.00 0.00 0.00 89 1017.1
20260906130848 73 124 0.0 1.0 0.00 0.00 0.00 90 1017.3
20260906130348 73 85 1.0 3.0 0.00 0.00 0.00 90 1017.1
20260906125847 73 136 1.0 2.0 0.00 0.00 0.00 91 1017.0
20260906125344 72 117 3.0 4.0 0.00 0.00 0.00 91 1016.9
20260906124839 72 125 2.0 2.0 0.00 0.00 0.00 92 1016.7
20260906124335 72 123 2.0 2.0 0.00 0.00 0.00 91 1016.8
20260906123834 72 125 2.0 2.0 0.00 0.00 0.00 92 1016.8
20260906123329 72 136 0.0 1.0 0.00 0.00 0.00 92 1016.8
20260906122829 72 136 0.0 0.0 0.00 0.00 0.00 93 1017.1
20260906122324 71 136 0.0 0.0 0.00 0.00 0.00 93 1016.9
20260906121821 71 138 0.0 0.0 0.00 0.00 0.00 93 1016.9
20260906121316 71 138 0.0 1.0 0.00 0.00 0.00 93 1016.7
20260906120813 71 139 0.0 0.0 0.00 0.00 0.00 93 1016.5
20260906120308 71 139 0.0 0.0 0.00 0.00 0.00 93 1016.6
20260906115804 71 139 0.0 0.0 0.00 0.00 0.00 94 1016.5
20260906115259 71 139 0.0 1.0 0.00 0.00 0.00 94 1016.5
20260906114759 71 139 1.0 2.0 0.00 0.00 0.00 94 1016.2
20260906114254 71 128 0.0 1.0 0.00 0.00 0.00 94 1016.4
20260906113749 71 128 0.0 0.0 0.00 0.00 0.00 94 1016.3
20260906113249 71 129 0.0 2.0 0.00 0.00 0.00 94 1016.2
20260906112748 71 133 1.0 1.0 0.00 0.00 0.00 95 1015.9
20260906112245 71 133 0.0 0.0 0.00 0.00 0.00 95 1016.2
20260906111745 71 133 0.0 1.0 0.00 0.00 0.00 95 1016.1
20260906111244 71 133 0.0 0.0 0.00 0.00 0.00 95 1016.1
20260906110739 71 129 1.0 2.0 0.00 0.00 0.00 95 1016.0
20260906110235 71 129 1.0 1.0 0.00 0.00 0.00 95 1016.0
20260906105733 71 130 0.0 0.0 0.00 0.00 0.00 95 1016.2
20260906105230 71 128 2.0 2.0 0.00 0.00 0.00 95 1016.0
20260906104725 70 122 1.0 2.0 0.00 0.00 0.00 95 1016.0
20260906104224 70 135 2.0 2.0 0.00 0.00 0.00 96 1015.8
20260906103722 70 134 1.0 1.0 0.00 0.00 0.00 95 1016.0
20260906103217 70 136 1.0 1.0 0.00 0.00 0.00 95 1016.0
20260906102712 70 136 1.0 2.0 0.00 0.00 0.00 95 1015.9
20260906102211 71 136 0.0 0.0 0.00 0.00 0.00 95 1015.8
20260906101706 71 136 0.0 0.0 0.00 0.00 0.00 95 1015.9
20260906101200 71 136 2.0 2.0 0.00 0.00 0.00 95 1015.7
20260906100656 71 149 1.0 1.0 0.00 0.00 0.00 95 1015.6
20260906100156 71 152 1.0 1.0 0.00 0.00 0.00 94 1015.7
20260906095651 71 130 1.0 1.0 0.00 0.00 0.00 94 1015.7
20260906095147 71 125 0.0 1.0 0.00 0.00 0.00 94 1015.7
20260906094645 71 128 0.0 1.0 0.00 0.00 0.00 94 1015.6
20260906094141 71 141 1.0 1.0 0.00 0.00 0.00 94 1015.6
20260906093637 71 129 1.0 2.0 0.00 0.00 0.00 94 1015.3
20260906093137 71 110 0.0 3.0 0.00 0.00 0.00 93 1015.3
20260906092632 72 133 0.0 1.0 0.00 0.00 0.00 93 1015.1
20260906092133 72 132 2.0 2.0 0.00 0.00 0.00 93 1015.1
20260906091629 72 123 1.0 2.0 0.00 0.00 0.00 93 1015.2
20260906091125 72 123 1.0 1.0 0.00 0.00 0.00 92 1015.3
20260906090620 72 139 2.0 4.0 0.00 0.00 0.00 92 1015.1
20260906090120 72 121 2.0 3.0 0.00 0.00 0.00 92 1014.9
20260906085620 72 128 1.0 1.0 0.00 0.00 0.00 93 1015.0
20260906085114 72 104 3.0 3.0 0.00 0.00 0.00 93 1015.0
20260906084609 72 133 1.0 2.0 0.00 0.00 0.00 94 1015.0
20260906084108 72 126 2.0 2.0 0.00 0.00 0.00 95 1014.9
20260906083603 72 129 1.0 1.0 0.00 0.00 0.00 95 1015.1
20260906083103 72 130 2.0 2.0 0.00 0.00 0.00 94 1015.3
20260906082558 72 129 1.0 2.0 0.00 0.00 0.00 94 1015.2
20260906082054 72 119 1.0 1.0 0.00 0.00 0.00 94 1015.2
20260906081549 72 119 1.0 2.0 0.00 0.00 0.00 94 1015.3
20260906081045 73 119 0.0 0.0 0.00 0.00 0.00 94 1015.3
20260906080542 73 119 0.0 0.0 0.00 0.00 0.00 94 1015.1
20260906080037 73 119 0.0 1.0 0.00 0.00 0.00 93 1015.0
20260906075537 73 119 0.0 0.0 0.00 0.00 0.00 93 1015.4
20260906075032 73 119 1.0 1.0 0.00 0.00 0.00 93 1015.3
20260906074527 73 120 1.0 2.0 0.00 0.00 0.00 93 1015.4
20260906074025 73 119 1.0 1.0 0.00 0.00 0.00 93 1015.3
20260906073520 73 119 2.0 2.0 0.00 0.00 0.00 93 1015.0
20260906073017 73 119 1.0 1.0 0.00 0.00 0.00 93 1015.2
20260906072511 73 119 1.0 1.0 0.00 0.00 0.00 93 1015.4
20260906072007 73 119 1.0 1.0 0.00 0.00 0.00 92 1015.2
20260906071503 73 119 0.0 0.0 0.00 0.00 0.00 92 1015.4
20260906070958 74 119 0.0 1.0 0.00 0.00 0.00 92 1015.3
20260906070454 74 129 0.0 0.0 0.00 0.00 0.00 92 1015.3
20260906065950 74 129 0.0 3.0 0.00 0.00 0.00 92 1015.2
20260906065449 74 131 1.0 1.0 0.00 0.00 0.00 92 1015.3
20260906064945 74 138 1.0 1.0 0.00 0.00 0.00 91 1015.4
20260906064442 74 139 0.0 2.0 0.00 0.00 0.00 91 1015.2
20260906063942 74 129 1.0 2.0 0.00 0.00 0.00 91 1015.3
20260906063438 74 124 2.0 2.0 0.00 0.00 0.00 91 1015.5
20260906062937 74 128 0.0 0.0 0.00 0.00 0.00 91 1015.4
20260906062433 75 122 2.0 2.0 0.00 0.00 0.00 91 1015.3
20260906061928 75 115 1.0 1.0 0.00 0.00 0.00 90 1015.1
20260906061424 75 122 1.0 1.0 0.00 0.00 0.00 90 1015.2
20260906060924 75 125 2.0 2.0 0.00 0.00 0.00 90 1015.3
20260906060421 75 125 1.0 1.0 0.00 0.00 0.00 89 1015.3
20260906055917 75 131 1.0 1.0 0.00 0.00 0.00 89 1015.4
20260906055413 75 119 1.0 3.0 0.00 0.00 0.00 89 1015.4
20260906054908 76 128 1.0 1.0 0.00 0.00 0.00 89 1015.1
20260906054402 76 129 1.0 1.0 0.00 0.00 0.00 88 1015.3
20260906053859 76 130 1.0 1.0 0.00 0.00 0.00 88 1015.3
20260906053354 77 134 1.0 2.0 0.00 0.00 0.00 87 1015.0
20260906052850 77 130 1.0 2.0 0.00 0.00 0.00 87 1015.2
20260906052346 77 123 1.0 2.0 0.00 0.00 0.00 87 1015.2
20260906051843 77 132 1.0 1.0 0.00 0.00 0.00 89 1015.2
20260906051342 77 125 1.0 2.0 0.00 0.00 0.00 90 1015.1
20260906050838 77 121 0.0 1.0 0.00 0.00 0.00 90 1015.1
20260906050333 77 117 1.0 2.0 0.00 0.00 0.00 89 1014.9
20260906045832 78 134 2.0 2.0 0.00 0.00 0.00 89 1014.8
20260906045326 78 118 1.0 3.0 0.00 0.00 0.00 89 1014.6
20260906044823 78 123 1.0 2.0 0.00 0.00 0.00 90 1014.6
20260906044323 78 147 0.0 1.0 0.00 0.00 0.00 90 1014.8
20260906043819 78 114 1.0 2.0 0.00 0.00 0.00 91 1014.6
20260906043315 78 114 2.0 2.0 0.00 0.00 0.00 91 1014.5
20260906042814 78 142 0.0 1.0 0.00 0.00 0.00 92 1014.8
20260906042313 78 133 1.0 1.0 0.00 0.00 0.00 92 1014.6
20260906041809 78 135 0.0 1.0 0.00 0.00 0.00 92 1014.6
20260906041304 78 135 1.0 1.0 0.00 0.00 0.00 92 1014.5
20260906040759 79 135 0.0 1.0 0.00 0.00 0.00 92 1014.3
20260906040254 79 138 0.0 0.0 0.00 0.00 0.00 91 1014.3
20260906035750 79 138 0.0 0.0 0.00 0.00 0.00 91 1014.2
20260906035246 79 138 0.0 0.0 0.00 0.00 0.00 90 1014.0
20260906034745 79 138 1.0 1.0 0.00 0.00 0.00 90 1014.1
20260906034240 80 141 1.0 1.0 0.00 0.00 0.00 90 1014.1
20260906033736 80 100 1.0 1.0 0.00 0.00 0.00 89 1014.0
20260906033235 80 96 0.0 1.0 0.00 0.00 0.00 89 1014.1
20260906032732 80 96 0.0 1.0 0.00 0.00 0.00 89 1014.0
20260906032232 80 106 1.0 1.0 0.00 0.00 0.00 88 1014.0
20260906031727 80 108 0.0 1.0 0.00 0.00 0.00 89 1013.9
20260906031223 80 88 1.0 3.0 0.00 0.00 0.00 89 1013.6
20260906030723 80 103 0.0 0.0 0.00 0.00 0.00 89 1013.9
20260906030218 80 103 1.0 2.0 0.00 0.00 0.00 89 1013.7
20260906025717 80 149 0.0 0.0 0.00 0.00 0.00 88 1013.6
20260906025212 81 149 0.0 0.0 0.00 0.00 0.00 87 1013.6
20260906024711 81 149 0.0 0.0 0.00 0.00 0.00 87 1013.8
20260906024210 81 149 1.0 1.0 0.00 0.00 0.00 87 1013.5
20260906023707 81 149 1.0 1.0 0.00 0.00 0.00 88 1013.5
20260906023207 81 149 0.0 0.0 0.00 0.00 0.00 88 1013.4
20260906022702 81 149 0.0 0.0 0.00 0.00 0.00 88 1013.5
20260906022157 81 149 0.0 0.0 0.00 0.00 0.00 87 1013.4
20260906021654 81 149 0.0 1.0 0.00 0.00 0.00 87 1013.5
20260906021152 81 149 0.0 0.0 0.00 0.00 0.00 87 1013.5
20260906020647 81 149 0.0 0.0 0.00 0.00 0.00 86 1013.5
20260906020142 81 149 0.0 0.0 0.00 0.00 0.00 86 1013.4
20260906015642 82 149 1.0 1.0 0.00 0.00 0.00 85 1013.4
20260906015140 82 149 1.0 1.0 0.00 0.00 0.00 85 1013.1
20260906014635 82 149 0.0 0.0 0.00 0.00 0.00 85 1013.3
20260906014131 82 149 0.0 0.0 0.00 0.00 0.00 84 1013.1
20260906013626 82 149 0.0 0.0 0.00 0.00 0.00 84 1013.1
20260906013122 82 149 1.0 1.0 0.00 0.00 0.00 84 1013.1
20260906012616 82 149 0.0 0.0 0.00 0.00 0.00 84 1013.0
20260906012116 82 149 0.0 0.0 0.00 0.00 0.00 83 1013.1
20260906011612 83 149 0.0 0.0 0.00 0.00 0.00 83 1012.8
20260906011107 83 149 0.0 0.0 0.00 0.00 0.00 82 1013.0
20260906010602 83 149 0.0 0.0 0.00 0.00 0.00 82 1012.6
20260906010058 83 149 0.0 0.0 0.00 0.00 0.00 81 1012.9
20260906005557 84 149 0.0 0.0 0.00 0.00 0.00 79 1012.5
20260906005056 84 149 0.0 0.0 0.00 0.00 0.00 78 1012.4
20260906004556 84 149 0.0 0.0 0.00 0.00 0.00 77 1012.5
20260906004051 85 149 0.0 0.0 0.00 0.00 0.00 76 1012.6
20260906003546 85 149 0.0 0.0 0.00 0.00 0.00 75 1012.5
20260906003043 85 149 0.0 0.0 0.00 0.00 0.00 74 1012.4
20260906002543 86 149 0.0 0.0 0.00 0.00 0.00 74 1012.8
20260906002037 86 149 0.0 0.0 0.00 0.00 0.00 74 1012.8
20260906001533 87 149 0.0 0.0 0.00 0.00 0.00 72 1012.6
20260906001027 87 149 0.0 0.0 0.00 0.00 0.00 70 1012.6
20260906000523 87 149 0.0 0.0 0.00 0.00 0.00 69 1012.6
20260906000018 88 149 0.0 0.0 0.00 0.00 0.00 69 1012.5
20260905235517 88 149 0.0 0.0 0.00 0.00 0.00 69 1012.3
20260905235013 89 149 0.0 0.0 0.00 0.00 0.00 68 1012.5
20260905234509 89 149 0.0 0.0 0.00 0.00 0.00 66 1012.8
20260905234009 90 149 0.0 0.0 0.00 0.00 0.00 64 1012.5
20260905233503 91 149 0.0 0.0 0.00 0.00 0.00 63 1012.5
20260905233003 91 149 0.0 0.0 0.00 0.00 0.00 62 1012.3
20260905232458 92 149 0.0 1.0 0.00 0.00 0.00 60 1012.3
20260905231954 93 149 0.0 0.0 0.00 0.00 0.00 58 1012.2
20260905231449 94 150 0.0 1.0 0.00 0.00 0.00 57 1012.5
20260905230946 95 143 0.0 2.0 0.00 0.00 0.00 57 1012.4
20260905230444 95 151 0.0 0.0 0.00 0.00 0.00 54 1012.2
20260905225943 95 151 0.0 1.0 0.00 0.00 0.00 53 1012.3
20260905225438 96 106 0.0 0.0 0.00 0.00 0.00 52 1012.2
20260905224933 96 151 0.0 0.0 0.00 0.00 0.00 52 1012.2
20260905224429 96 151 0.0 1.0 0.00 0.00 0.00 52 1012.2
20260905223928 96 128 1.0 2.0 0.00 0.00 0.00 50 1012.2
20260905223426 96 181 2.0 2.0 0.00 0.00 0.00 50 1012.3
20260905222926 96 78 0.0 1.0 0.00 0.00 0.00 50 1012.1
20260905222426 97 154 0.0 1.0 0.00 0.00 0.00 53 1012.3
20260905221922 96 137 0.0 0.0 0.00 0.00 0.00 52 1012.3
20260905221418 96 149 0.0 1.0 0.00 0.00 0.00 52 1012.4
20260905220914 96 152 1.0 2.0 0.00 0.00 0.00 53 1012.3
20260905220410 96 47 0.0 1.0 0.00 0.00 0.00 54 1012.3
20260905215909 97 117 1.0 1.0 0.00 0.00 0.00 53 1012.4
20260905215405 97 208 1.0 1.0 0.00 0.00 0.00 55 1012.2
20260905214901 97 205 1.0 4.0 0.00 0.00 0.00 52 1012.4
20260905214356 98 179 1.0 2.0 0.00 0.00 0.00 53 1012.2
20260905213851 97 150 0.0 1.0 0.00 0.00 0.00 50 1012.4
20260905213347 97 161 0.0 1.0 0.00 0.00 0.00 49 1012.4
20260905212842 97 118 1.0 2.0 0.00 0.00 0.00 49 1012.3
20260905212342 97 117 1.0 3.0 0.00 0.00 0.00 50 1012.3
20260905211841 98 234 1.0 2.0 0.00 0.00 0.00 47 1012.6
20260905211337 99 132 2.0 2.0 0.00 0.00 0.00 44 1012.3
20260905210834 100 242 2.0 2.0 0.00 0.00 0.00 45 1012.5
20260905210333 99 204 0.0 2.0 0.00 0.00 0.00 48 1012.4
20260905205832 98 100 1.0 2.0 0.00 0.00 0.00 47 1012.3
20260905205327 98 186 0.0 2.0 0.00 0.00 0.00 48 1012.6
20260905204826 98 122 0.0 2.0 0.00 0.00 0.00 48 1012.6
20260905204323 98 120 0.0 2.0 0.00 0.00 0.00 46 1012.8
20260905203821 98 339 1.0 3.0 0.00 0.00 0.00 46 1012.8
20260905203317 98 244 3.0 3.0 0.00 0.00 0.00 46 1012.8
20260905202813 98 185 1.0 2.0 0.00 0.00 0.00 47 1013.0
20260905202307 98 218 1.0 3.0 0.00 0.00 0.00 48 1013.0
20260905201803 98 208 2.0 2.0 0.00 0.00 0.00 46 1012.8
20260905201258 98 118 1.0 4.0 0.00 0.00 0.00 47 1013.2
20260905200753 98 152 1.0 3.0 0.00 0.00 0.00 47 1013.0
20260905200249 98 173 1.0 1.0 0.00 0.00 0.00 47 1012.9
20260905195746 98 170 0.0 3.0 0.00 0.00 0.00 49 1013.0
20260905195241 97 234 2.0 4.0 0.00 0.00 0.00 50 1013.0
20260905194738 97 179 1.0 3.0 0.00 0.00 0.00 47 1013.0
20260905194237 97 215 1.0 2.0 0.00 0.00 0.00 49 1013.1
20260905193736 96 170 1.0 1.0 0.00 0.00 0.00 50 1013.1
20260905193232 97 261 2.0 3.0 0.00 0.00 0.00 48 1013.2
20260905192727 97 229 1.0 3.0 0.00 0.00 0.00 48 1013.3
20260905192223 97 85 1.0 1.0 0.00 0.00 0.00 48 1013.2
20260905191722 96 269 1.0 4.0 0.00 0.00 0.00 51 1013.2
20260905191220 96 243 5.0 7.0 0.00 0.00 0.00 47 1013.0
20260905190720 97 238 1.0 4.0 0.00 0.00 0.00 50 1013.3
20260905190219 96 191 0.0 1.0 0.00 0.00 0.00 51 1013.4
20260905185718 96 221 2.0 3.0 0.00 0.00 0.00 47 1013.1
20260905185212 96 255 2.0 4.0 0.00 0.00 0.00 49 1013.3
20260905184707 97 263 1.0 3.0 0.00 0.00 0.00 48 1013.3
20260905184206 98 276 5.0 7.0 0.00 0.00 0.00 46 1013.3
20260905183706 97 227 0.0 4.0 0.00 0.00 0.00 46 1013.4
20260905183201 97 260 3.0 3.0 0.00 0.00 0.00 48 1013.5
20260905182700 97 194 2.0 3.0 0.00 0.00 0.00 45 1013.5
20260905182200 97 228 2.0 2.0 0.00 0.00 0.00 45 1013.4
20260905181656 96 257 1.0 2.0 0.00 0.00 0.00 49 1013.4
20260905181154 95 228 3.0 3.0 0.00 0.00 0.00 48 1013.5
20260905180649 96 251 4.0 4.0 0.00 0.00 0.00 47 1013.7
20260905180145 96 237 4.0 6.0 0.00 0.00 0.00 47 1013.6
20260905175643 96 219 4.0 6.0 0.00 0.00 0.00 47 1013.8
20260905175139 97 262 4.0 6.0 0.00 0.00 0.00 46 1013.8
20260905174635 96 273 2.0 4.0 0.00 0.00 0.00 47 1013.7
20260905174130 96 252 2.0 4.0 0.00 0.00 0.00 49 1013.7
20260905173626 97 264 3.0 3.0 0.00 0.00 0.00 47 1013.9
20260905173122 96 247 2.0 2.0 0.00 0.00 0.00 51 1013.9
20260905172621 97 232 3.0 4.0 0.00 0.00 0.00 47 1013.9
20260905172116 97 240 1.0 3.0 0.00 0.00 0.00 50 1014.0
20260905171612 96 194 1.0 2.0 0.00 0.00 0.00 49 1014.2
20260905171108 96 327 1.0 4.0 0.00 0.00 0.00 50 1014.0
20260905170604 96 240 2.0 3.0 0.00 0.00 0.00 49 1014.1
20260905170059 95 224 2.0 4.0 0.00 0.00 0.00 50 1014.2
20260905165600 96 245 4.0 4.0 0.00 0.00 0.00 49 1014.1
20260905165055 97 235 2.0 3.0 0.00 0.00 0.00 50 1014.4
20260905164550 96 279 0.0 2.0 0.00 0.00 0.00 51 1014.2
20260905164049 95 230 1.0 3.0 0.00 0.00 0.00 54 1014.0
20260905163546 95 225 2.0 4.0 0.00 0.00 0.00 52 1014.2
20260905163042 95 230 1.0 4.0 0.00 0.00 0.00 54 1014.1
20260905162538 95 217 1.0 1.0 0.00 0.00 0.00 54 1014.0
20260905162037 94 270 1.0 2.0 0.00 0.00 0.00 55 1014.0
20260905161532 93 219 2.0 4.0 0.00 0.00 0.00 54 1014.2
20260905161030 94 243 2.0 6.0 0.00 0.00 0.00 54 1014.1
20260905160528 93 209 2.0 2.0 0.00 0.00 0.00 56 1014.1
20260905160023 93 227 3.0 3.0 0.00 0.00 0.00 58 1014.1
20260905155523 93 236 1.0 2.0 0.00 0.00 0.00 58 1014.2
20260905155021 92 224 1.0 3.0 0.00 0.00 0.00 62 1014.0
20260905154517 92 242 3.0 3.0 0.00 0.00 0.00 60 1014.1
20260905154012 91 248 1.0 2.0 0.00 0.00 0.00 63 1014.1
20260905153508 91 245 2.0 3.0 0.00 0.00 0.00 63 1014.3
20260905153008 91 280 1.0 2.0 0.00 0.00 0.00 65 1014.1
20260905152508 90 257 1.0 3.0 0.00 0.00 0.00 63 1014.0
20260905152002 90 248 2.0 4.0 0.00 0.00 0.00 62 1014.1
20260905151458 91 239 2.0 2.0 0.00 0.00 0.00 64 1014.0
20260905150953 90 257 1.0 2.0 0.00 0.00 0.00 63 1013.9
20260905150448 89 285 2.0 4.0 0.00 0.00 0.00 63 1014.0
20260905145944 89 263 3.0 4.0 0.00 0.00 0.00 64 1013.8
20260905145439 89 235 2.0 3.0 0.00 0.00 0.00 64 1014.1
20260905144938 89 239 3.0 4.0 0.00 0.00 0.00 65 1013.7
20260905144434 88 278 1.0 2.0 0.00 0.00 0.00 67 1013.9